Lid_Strength_Index
3 3 3 3 4 4 3 3 3 3 3 3 2 2 2 2 2 4 8 5 3 -1 -0 7 7 7 8 9 10 12 14 15 15 14 14 12 8 6 5 6 5 5 5 4 2
3 3 3 3 3 4 3 3 3 3 3 3 2 2 2 2 5 7 2 -2 -2 -2 8 8 8 8 10 10 10 12 15 14 12 12 15 13 9 7 7 7 6 5 4 3 3
3 3 4 3 3 4 3 4 3 3 3 3 2 2 2 3 5 4 -3 -3 -1 1 7 7 8 9 8 11 10 12 13 12 10 10 11 11 10 6 7 9 6 7 6 4 4
3 3 3 4 4 4 4 4 3 3 3 3 3 2 2 5 10 5 -3 -2 -1 6 7 8 8 9 10 10 11 10 10 11 10 10 10 10 9 8 6 7 5 5 4 4 4
3 3 3 4 3 3 3 3 3 3 3 2 3 2 5 7 6 2 -2 -1 5 8 8 7 9 9 10 12 11 11 10 10 10 11 11 9 10 7 7 5 4 4 4 5 4
3 3 3 3 3 3 3 3 3 3 3 2 2 2 6 10 4 1 3 5 6 8 7 7 9 9 11 11 11 10 10 10 10 8 7 11 10 8 7 5 5 5 5 5 4
3 3 3 3 3 3 3 3 3 3 3 2 2 2 6 6 4 2 6 7 6 6 7 6 7 9 9 10 9 9 9 11 10 10 11 9 10 9 6 5 6 6 5 5 5
3 3 3 3 3 3 3 3 3 3 2 1 1 3 7 3 4 4 5 5 5 5 6 6 7 9 10 9 9 11 12 13 11 10 10 9 13 8 6 6 7 6 6 6 6
3 3 3 3 3 3 3 3 3 2 1 1 4 4 7 2 5 4 4 5 6 6 6 4 7 10 9 12 13 13 14 14 11 10 10 10 13 8 6 7 7 7 7 6 7
2 3 3 3 3 3 4 3 2 3 2 1 2 7 6 6 5 4 5 5 6 7 7 8 11 12 13 13 15 14 14 13 14 11 10 10 11 9 7 7 8 7 7 7 7
2 3 3 3 3 4 5 6 8 8 5 8 7 6 5 4 4 6 5 6 6 8 11 10 12 14 12 11 11 12 13 13 11 9 10 10 11 10 8 8 8 8 8 7 7
3 3 3 3 4 4 6 6 6 8 9 6 5 4 3 4 7 6 5 8 8 11 10 11 13 10 10 10 10 11 12 13 11 9 11 11 12 10 8 8 9 9 9 9 8
3 3 3 3 4 6 6 6 5 7 10 8 6 6 6 6 7 7 6 7 9 11 11 12 10 8 10 11 11 12 13 13 12 11 11 11 13 12 9 9 8 8 7 7 8
3 3 3 4 6 6 6 5 5 6 12 9 7 7 7 7 8 5 6 7 9 11 11 11 9 9 10 10 11 14 10 11 12 13 15 13 17 14 11 10 9 9 9 8 8
3 3 3 4 7 7 4 5 6 6 17 7 7 6 8 8 8 7 6 7 9 8 10 11 11 10 11 10 9 11 10 10 11 14 15 15 17 15 11 12 10 9 9 8 8
3 3 4 5 7 5 4 5 6 12 15 9 7 9 9 9 8 8 7 7 7 9 10 10 8 9 9 9 9 9 11 12 14 15 17 15 15 15 14 12 10 9 8 7 8
3 3 5 4 8 6 5 6 12 15 8 9 9 9 10 10 9 8 9 11 12 13 13 10 10 9 8 10 10 11 14 17 17 18 17 14 14 14 11 9 9 8 8 7 7
4 5 5 4 6 5 6 9 15 10 10 7 9 9 11 10 10 9 10 11 10 11 13 13 13 10 8 11 12 13 14 16 19 19 18 13 17 14 9 8 7 7 7 7 7
5 6 6 5 4 5 8 13 13 10 8 9 9 11 11 10 10 10 10 11 10 10 12 13 13 9 8 9 10 13 14 13 15 17 18 16 14 11 9 9 8 8 8 7 8
8 7 6 4 4 6 10 12 10 7 8 9 11 10 12 10 11 11 11 9 9 9 10 11 14 10 9 9 9 12 11 15 16 19 20 17 16 16 12 11 9 8 8 7 7
9 8 6 5 5 8 12 12 8 6 7 9 10 10 10 10 10 11 10 9 8 8 9 11 13 12 11 12 12 12 13 14 15 16 18 20 16 11 11 9 9 8 7 6 6
10 11 7 6 9 11 11 9 6 6 6 9 9 9 10 9 10 10 10 9 8 8 11 11 13 14 13 9 8 10 12 13 16 17 16 17 16 10 9 8 8 8 6 6 6
10 10 6 7 12 12 10 7 6 7 8 8 9 8 9 10 12 10 9 8 7 8 10 10 14 17 15 11 10 11 10 12 14 15 16 18 16 9 9 9 8 8 7 6 6
10 11 9 8 10 10 11 9 9 7 8 7 9 9 11 12 11 11 10 8 7 7 6 8 14 15 16 14 12 13 11 11 13 16 16 15 14 11 10 10 9 9 9 7 6
10 11 8 11 10 10 10 9 9 9 8 9 10 9 10 13 12 12 9 9 8 6 9 12 14 13 12 11 11 11 11 11 13 13 14 13 14 13 11 10 10 8 7 6 6
11 10 7 9 9 10 10 10 9 8 9 9 10 8 9 11 11 11 10 10 11 9 10 11 14 12 14 11 11 12 11 11 11 11 13 13 14 10 8 8 8 7 7 7 6
8 7 7 8 10 10 10 9 8 8 8 8 7 9 9 8 8 8 8 9 9 10 12 12 13 14 16 12 12 15 13 11 11 11 13 15 13 9 10 8 8 8 7 7 6